TimeEST,TemperatureF,Dew PointF,Humidity,Sea Level PressureIn,VisibilityMPH,Wind Direction,Wind SpeedMPH,Gust SpeedMPH,PrecipitationIn,Events,Conditions,WindDirDegrees,DateUTC
12:25 AM,46.4,44.6,93,29.50,10.0,South,15.0,-,N/A,,Overcast,180,2014-01-06 05:25:00
12:56 AM,45.9,43.9,93,29.49,10.0,South,15.0,20.7,N/A,,Overcast,180,2014-01-06 05:56:00
1:23 AM,46.4,44.6,93,29.45,-9999.0,North,-9999.0,-,N/A,,Unknown,0,2014-01-06 06:23:00
1:56 AM,46.9,45.0,93,29.45,10.0,South,13.8,-,N/A,,Overcast,180,2014-01-06 06:56:00
2:56 AM,48.9,45.0,86,29.38,10.0,SSW,18.4,26.5,N/A,,Overcast,200,2014-01-06 07:56:00
3:56 AM,46.4,44.6,93,29.33,10.0,SSW,12.7,18.4,N/A,Rain,Light Rain,200,2014-01-06 08:56:00
4:20 AM,46.4,44.6,93,29.33,7.0,SSW,16.1,21.9,0.01,Rain,Rain,210,2014-01-06 09:20:00
4:40 AM,46.4,44.6,93,-9999,-9999.0,North,-9999.0,-,N/A,,Unknown,0,2014-01-06 09:40:00
4:56 AM,-9999,-9999,N/A,-9999,-9999.0,North,-9999.0,-,N/A,,Unknown,0,2014-01-06 09:56:00
5:56 AM,-9999,-9999,N/A,-9999,-9999.0,North,-9999.0,-,N/A,,Unknown,0,2014-01-06 10:56:00
6:22 AM,-9999,-9999,N/A,-9999,10.0,North,-9999.0,-,N/A,Rain,Light Rain,0,2014-01-06 11:22:00
6:56 AM,43.9,37.9,80,29.38,10.0,SW,16.1,25.3,N/A,Rain,Light Rain,230,2014-01-06 11:56:00
7:56 AM,41.0,34.9,79,29.42,10.0,SW,15.0,-,0.00,Rain,Light Rain,230,2014-01-06 12:56:00
8:28 AM,33.8,32.0,93,-9999,5.0,North,-9999.0,-,0.00,Snow,Light Snow,0,2014-01-06 13:28:00
8:56 AM,-9999,-9999,N/A,-9999,7.0,North,-9999.0,-,N/A,,Unknown,0,2014-01-06 13:56:00
9:03 AM,-9999,-9999,N/A,-9999,-9999.0,North,-9999.0,-,N/A,,Unknown,0,2014-01-06 14:03:00
9:56 AM,-9999,-9999,N/A,-9999,10.0,North,-9999.0,-,N/A,,Mostly Cloudy,0,2014-01-06 14:56:00
10:03 AM,-9999,-9999,N/A,-9999,-9999.0,North,-9999.0,-,N/A,,Unknown,0,2014-01-06 15:03:00
10:56 AM,-9999,-9999,N/A,-9999,10.0,North,-9999.0,-,N/A,,Mostly Cloudy,0,2014-01-06 15:56:00
11:56 AM,-9999,-9999,N/A,-9999,-9999.0,North,-9999.0,-,N/A,,Unknown,0,2014-01-06 16:56:00
12:56 PM,28.0,15.1,58,29.57,10.0,West,16.1,28.8,N/A,,Overcast,280,2014-01-06 17:56:00
1:56 PM,27.1,14.0,58,29.58,10.0,WNW,19.6,26.5,N/A,,Mostly Cloudy,300,2014-01-06 18:56:00
2:56 PM,27.1,15.1,60,29.61,10.0,NW,12.7,20.7,N/A,,Mostly Cloudy,310,2014-01-06 19:56:00
3:56 PM,25.2,13.1,60,29.62,7.0,WNW,16.1,-,N/A,Snow,Light Snow Showers,290,2014-01-06 20:56:00
4:32 PM,24.8,10.4,54,29.59,10.0,WNW,19.6,24.2,0.00,Snow,Light Snow Showers,290,2014-01-06 21:32:00
4:56 PM,22.1,10.0,60,29.59,10.0,WNW,16.1,20.7,0.00,,Mostly Cloudy,290,2014-01-06 21:56:00
5:56 PM,20.1,9.1,62,29.61,10.0,WNW,19.6,24.2,N/A,,Mostly Cloudy,300,2014-01-06 22:56:00
6:56 PM,18.1,10.0,71,29.68,10.0,NW,20.7,-,0.00,Snow,Light Snow Showers,310,2014-01-06 23:56:00
7:21 PM,15.8,8.6,73,29.66,4.0,NW,19.6,23.0,0.00,Snow,Light Snow Showers,310,2014-01-07 00:21:00
7:56 PM,12.0,3.0,67,29.72,7.0,WNW,19.6,29.9,0.00,Snow,Light Snow Showers,300,2014-01-07 00:56:00
8:56 PM,7.2,-8.0,50,29.74,10.0,West,20.7,31.1,0.00,,Mostly Cloudy,260,2014-01-07 01:56:00
9:56 PM,-9999,-9999,N/A,-9999,10.0,West,16.1,28.8,N/A,,Mostly Cloudy,270,2014-01-07 02:56:00
10:56 PM,3.0,-11.9,50,29.76,10.0,West,21.9,32.2,N/A,,Clear,270,2014-01-07 03:56:00
11:56 PM,2.1,-11.9,52,29.79,10.0,West,18.4,28.8,N/A,,Overcast,270,2014-01-07 04:56:00